CALSPHERE 1 1 00900U 64063C 26237.31151108 .00000494 00000+0 49187-3 0 9996 2 00900 90.2174 73.3761 0027999 83.2860 89.9634 13.76686362 80931 CALSPHERE 2 1 00902U 64063E 26237.05641973 .00000047 00000+0 57880-4 0 9997 2 00902 90.2292 77.4217 0019666 32.6955 131.9795 13.52904687865574 LCS 1 1 01361U 65034C 26237.13954160 .00000006 00000+0 -32851-3 0 9996 2 01361 32.1460 13.3062 0011706 5.7955 354.2677 9.89310630216710 TEMPSAT 1 1 01512U 65065E 26236.43282847 .00000036 00000+0 53885-4 0 9999 2 01512 90.0018 212.5998 0071477 57.8807 95.3773 13.33597370969140 CALSPHERE 4A 1 01520U 65065H 26237.04732845 .00000078 00000+0 13292-3 0 9997 2 01520 89.8943 121.8027 0067895 269.7159 197.5545 13.36288359971906 OPS 5712 (P/L 160) 1 02826U 67053A 26237.27666822 .00006676 00000+0 92295-3 0 9992 2 02826 69.9143 228.8411 0004505 283.3507 76.7139 14.78486840 76444 OPS 5712 (P/L 153) 1 02874U 67053H 26237.22605485 -.00000004 00000+0 35187-4 0 9996 2 02874 69.9761 327.3259 0004753 114.6452 245.5150 13.96836846 16434 RIGIDSPHERE 2 (LCS 4) 1 05398U 71067E 26237.29494302 .00000433 00000+0 13456-3 0 9990 2 05398 87.6244 319.6301 0059768 5.8735 354.3151 14.37940885883813 COSMOS 2493 (SKRL-756 1) 1 39490U 13078A 26237.28857225 .00003455 00000+0 25812-3 0 9990 2 39490 82.4130 193.5676 0013564 18.2339 341.9370 15.02460042688336 COSMOS 2494 (SKRL-756 2) 1 39491U 13078B 26237.29422994 .00002832 00000+0 19611-3 0 9991 2 39491 82.4135 182.6629 0014877 336.6968 23.3582 15.05219631689204